TOKI (42820 NORAD) Tracking and Keplerian Element Data

This shows tracking and keplerian element data for the satellite.

Feedback or suggestion? Click here.




ElementValue
Catalog42820
NameTOKI
Epoch Orbit9766
Epoch Day80.86096126
Epoch Year2019
RAAN9.4705
Inclination51.6288
Eccentricity0.0004564
Argument of Perigee150.5306
Mean Anonmoly209.5959
Mean Motion15.9265333
Decay Rate0.00124353
L11 42820U 98067MU 19080.86096126 .00124353 16997-4 36224-3 0 9996
L22 42820 51.6288 9.4705 0004564 150.5306 209.5959 15.92653330 97666

Live tracking and technical data element details for TOKI (NORAD 42820). TOKI can be tracked NOW for your location showing map with azimuth and elevation plus other details from your city location.

Track the satellite on the map from your city or location and see movement details for azimuth, elevation, latitude, longitude, range, height, and movement on the map or in text.







IsCatalogInMostPopularTable: catalog: 42820, numindb: 214
Update: records affected: 1



GetName: 42820 TOKI

Hit Count: updated at: Sat, 23 Mar 2019 02:08:22 GMT